FENGYUN 1C DEB, 31919

Orbit data source: Space-Track

FENGYUN 1C DEB, 31919 is space debris in SSO originally from a launch on Mon, 10 May 1999 UTC launched from the Taiyaun Space Center, China (TSC). Fengyun 1C debris stems from the Chinese weather satellite Fengyun-1C, which was intentionally destroyed by a Chinese anti-satellite missile in 2007. This event dramatically increased the amount of space debris, with thousands of trackable fragments posing hazards to satellites and human spaceflight. The Fengyun 1C debris cloud has become a focal point in discussions about space sustainability and the need for international regulations to prevent the creation of new debris.

Loading next visibility...
Identifier
31919, 1999-025CLW
Orbit
SSO
Country
Flag of CNCN / PRC
Related business
Manufacturer
Unknown
Mission
Spacecraft
Bus & Motor
Unknown
Mass
Unknown
Launch date (UTC)
1999-05-10 (27 years ago)
Launch vehicle
Unknown
Launch site
Taiyaun Space Center, China (TSC)
Object type
Payload
Rocket body
Debris
Shape & HBR
Unknown shape, 0.1 m
Radar Cross Section
Small (<0.1 m²)

Expand to show TLE details & history
Last TLE update: 4 days ago

TLE from 4 days ago
0 FENGYUN 1C DEB
1 31919U 99025CLW 26092.20033426  .00002172  00000-0  58529-3 0  9991
2 31919  99.1171 247.7483 0101131 238.5389 300.5975 14.46130938986778
Epoch: 2026-04-02T04:48Z
TLE epoch observation values (Epoch: 2026-04-02T04:48:28.880Z)
Latitude
1.73697°
Longitude
165.35307°
Altitude
704.945 km
Speed
7.523 km/s
True Right ascension
04h 32m 06s
True Declination
1° 43' 35"
Sunlit
Object was in daylight at epoch
Visualization orbit readout
Latitude
Unknown
Longitude
Unknown
Altitude
Unknown
Speed
Unknown
Apparent Right ascension
Unknown
Apparent Declination
Unknown
Sunlit
N/A
Visualization observer readout
Local Sidereal Time
23:16:29
Azimuth
Unknown
Elevation
Unknown
Doppler factor
Unknown
Orbital elements
Apogee altitude
807.397 km
Perigee altitude
663.516 km
Semi-major axis
7,113.594 km
Eccentricity
0.01011
Inclination
99.1171°
RAAN
247.7483°
Arg. of periapsis
238.5389°
True anomaly
299.59357°
Mean anomaly
300.5975°
Eccentric anomaly
300.09618°
Mean motion
3.61751 °/min
Orbital period
99.52 mins
BSTAR
0.00058529
Loading maneuver chart data...
Computing Atmospheric mass density...

Documentation

Showing up to 5 results
|